Location: �perlecques
(50.8057°N, 2.1521°E)
Time: 20:24:33
(UTC+00:00)

Tiros 1 - Pass Details

Date: 04 August 2021
Orbit: 630 x 663 km, 48.4° (Epoch: 28 September)

Event Time Altitude Azimuth Distance (km) Brightness Sun altitude
Rises 15:57:15 0° 201° (SSW) 2,981 11.0 32.0°
Reaches altitude 10° 16:00:17 10° 182° (S) 2,070 10.0 31.5°
Maximum altitude 16:03:22 17° 141° (SE) 1,638 9.1 31.1°
Drops below altitude 10° 16:06:28 10° 101° (E) 2,068 9.3 30.6°
Sets 16:09:29 0° 81° (E) 2,977 10.0 30.1°
